OPS 7218 (TRANSIT 16) 1 02807U 67048A 12035.95249374 +.00000074 +00000-0 +10000-3 0 07405 2 02807 089.6840 172.0459 0020335 343.2843 016.7634 13.49820282200493 OPS 4947 (TRANSIT 17) 1 02965U 67092A 12035.96869197 +.00000078 +00000-0 +10000-3 0 09520 2 02965 089.2408 049.1172 0048162 155.7412 204.6023 13.52535020187251 OPS 7034 (TRANSIT 18) 1 03133U 68012A 12037.24838008 .00000075 00000-0 10000-3 0 619 2 03133 089.9619 283.7587 0076616 055.6917 305.1465 13.50639888162681 NNSS 19 (TRANSIT 19) 1 04507U 70067A 12036.90983891 .00000068 00000-0 82133-4 0 7549 2 04507 089.8389 297.0909 0172044 176.3374 183.9082 13.50263383 39724 NNSS 20 (TRANSIT 20) 1 06909U 73081A 12035.89875454 +.00000177 +00000-0 +17168-3 0 02257 2 06909 089.8596 344.1672 0159866 108.4414 253.4196 13.69918548110854 TRANSAT 1 10457U 77106A 12035.91070192 +.00000072 +00000-0 +10000-3 0 03579 2 10457 089.7198 219.8210 0027050 020.3106 339.9116 13.48336509685698 NOVA 1 1 12458U 81044A 12036.76451481 .00000050 00000-0 10000-3 0 5282 2 12458 090.0414 122.0526 0014228 017.3703 342.7886 13.22768526483225 NOVA 3 1 15362U 84110A 12035.99111992 +.00000050 +00000-0 +10000-3 0 04256 2 15362 090.0022 050.1111 0030107 230.8503 128.9958 13.22543590318360 OSCAR 30 1 15935U 85066A 12036.55450838 .00000074 00000-0 12182-3 0 9345 2 15935 090.0790 029.3047 0168576 311.1476 047.5223 13.35348790289264 OSCAR 24 1 15936U 85066B 12037.03185226 .00000031 00000-0 43705-4 0 4924 2 15936 090.0682 025.3819 0168737 313.0589 045.6501 13.35239952291443 POLAR BEAR 1 17070U 86088A 12036.58409823 .00000070 00000-0 61987-4 0 6197 2 17070 089.5204 062.0058 0036639 247.5400 112.1879 13.74434343264967 OSCAR 27 1 18361U 87080A 12037.20913254 .00000067 00000-0 10000-3 0 9280 2 18361 090.3637 267.0269 0104613 303.6494 055.4708 13.44161540196122 OSCAR 29 1 18362U 87080B 12035.96557648 +.00000067 +00000-0 +10000-3 0 01926 2 18362 090.3625 267.1455 0106887 320.0798 039.2523 13.43779724195697 OSCAR 23 1 19070U 88033A 12036.54673900 .00000057 00000-0 10000-3 0 2871 2 19070 090.2834 210.2010 0188832 203.1697 156.0834 13.27183708151610 OSCAR 32 1 19071U 88033B 12035.93866805 +.00000057 +00000-0 +10000-3 0 07732 2 19071 090.2878 210.2681 0187314 196.0468 163.4686 13.27379026151711 NOVA 2 1 19223U 88052A 12035.66846165 +.00000050 +00000-0 +10000-3 0 09868 2 19223 089.9992 091.6454 0028707 276.0888 083.6976 13.22472718140851 OSCAR 25 1 19419U 88074A 12037.50133052 .00000066 00000-0 10000-3 0 1744 2 19419 089.9445 024.9835 0094863 268.9338 090.0938 13.41895672148159 OSCAR 31 1 19420U 88074B 12035.92781099 +.00000066 +00000-0 +10000-3 0 08781 2 19420 089.9441 024.9377 0092920 267.8400 091.2104 13.41937772148042